Terminal Aerodrome Forecast
Issued by NWS Milwaukee/Sullivan, WI

Home | Current Version | Previous Version | Text Only | Print | Product List | Glossary On
Versions: 1 2 3 4 5 6 7 8 9 10 11 12 13 14 15 16 17 18 19 20 21 22 23 24 25 26 27 28 29 30 31 32 33 34 35 36 37 38 39 40 41 42 43 44 45 46 47
000
FTUS43 KMKX 041944 AAA
TAFMKE
TAF AMD
KMKE 041944Z 0420/0524 13009KT P6SM SCT050
     FM050100 15005KT P6SM SCT250
     FM051200 21004KT P6SM FEW200
     FM051700 16010KT P6SM FEW200=

USA.gov is the U.S. government's official web portal to all federal, state and local government web resources and services.